GW3951 Weather Reports


time (UTC)temp
C
wind
direction
speed
KPH
gust
KPH
rain 1hr
cm
rain 24hr
cm
rain mn
cm
humidity
%
barometer
mb
20260506140007 23 216 11.3 20.9 0.00 0.00 0.00 71 1017.0
20260506134516 22 233 3.2 12.9 0.00 0.00 0.00 76 1017.1
20260506133019 22 204 3.2 12.9 0.00 0.00 0.00 76 1017.1
20260506131526 22 283 8.0 16.1 0.00 0.00 0.00 79 1016.8
20260506130028 21 240 4.8 20.9 0.00 0.00 0.00 82 1016.8
20260506124513 20 234 9.7 16.1 0.00 0.00 0.00 83 1016.6
20260506123028 20 180 6.4 16.1 0.00 0.00 0.00 85 1016.7
20260506121527 19 199 6.4 9.7 0.00 0.00 0.00 87 1016.4
20260506120020 18 209 4.8 11.3 0.00 0.00 0.00 89 1016.4
20260506114511 17 108 0.0 3.2 0.00 0.00 0.00 90 1016.4
20260506113016 14 123 0.0 3.2 0.00 0.00 0.00 92 1016.2
20260506111519 12 91 0.0 0.0 0.00 0.00 0.00 94 1016.1
20260506110028 -17 0.0 0.0 0.00 0.00 0.00 1015.9
20260506104528 -17 0.0 0.0 0.00 0.00 0.00 1016.0
20260506103030 -17 0.0 0.0 0.00 0.00 0.00 1016.1
20260506101531 -17 0.0 0.0 0.00 0.00 0.00 1016.1
20260506100030 -17 0.0 0.0 0.00 0.00 0.00 1015.8
20260506094529 -17 0.0 0.0 0.00 0.00 0.00 1015.9
20260506093034 -17 185 0.0 0.0 0.00 0.00 0.00 93 1015.8
20260506091527 12 185 0.0 0.0 0.00 0.00 0.00 93 1015.8
20260506090020 12 185 0.0 0.0 0.00 0.00 0.00 93 1016.1
20260506084532 12 185 0.0 0.0 0.00 0.00 0.00 93 1015.9
20260506083020 12 185 0.0 0.0 0.00 0.00 0.00 93 1016.2
20260506081526 12 185 0.0 0.0 0.00 0.00 0.00 93 1016.3
20260506073022 12 185 0.0 0.0 0.00 0.00 0.00 93 1015.9
20260506071526 12 185 0.0 0.0 0.00 0.00 0.00 93 1015.8
20260506061527 13 185 0.0 0.0 0.00 0.00 0.00 92 1016.5
20260506044536 14 185 0.0 0.0 0.00 0.00 0.00 88 1016.8
20260506043014 14 185 0.0 0.0 0.00 0.00 0.00 87 1017.2
20260506041520 15 185 0.0 0.0 0.00 0.00 0.00 86 1017.2
20260506040006 15 185 0.0 3.2 0.00 0.00 0.00 87 1017.2
20260506034507 15 185 0.0 0.0 0.00 0.00 0.00 86 1017.1
20260506033011 15 185 0.0 0.0 0.00 0.00 0.00 85 1016.9
20260506031517 15 185 0.0 0.0 0.00 0.00 0.00 85 1017.0
20260506030022 16 185 0.0 3.2 0.00 0.00 0.00 82 1017.0
20260506024510 16 185 0.0 3.2 0.00 0.00 0.00 82 1017.0
20260506023016 16 122 0.0 0.0 0.00 0.00 0.00 81 1017.1
20260506021513 16 122 0.0 0.0 0.00 0.00 0.00 81 1017.1
20260506020016 17 122 0.0 0.0 0.00 0.00 0.00 78 1017.1
20260506014505 17 114 0.0 1.6 0.00 0.00 0.00 77 1016.8
20260506013006 18 150 1.6 8.0 0.00 0.00 0.00 75 1016.9
20260506011530 18 178 3.2 6.4 0.00 0.00 0.00 74 1016.5
20260506010014 18 158 3.2 8.0 0.00 0.00 0.00 72 1016.6
20260506004513 19 248 1.6 11.3 0.00 0.00 0.00 70 1016.7
20260506003005 19 147 4.8 9.7 0.00 0.00 0.00 69 1016.3
20260506001508 20 203 3.2 14.5 0.00 0.00 0.00 68 1016.5
20260506000014 20 149 6.4 19.3 0.00 0.00 0.00 66 1016.6
20260505234519 21 169 6.4 17.7 0.00 0.00 0.00 65 1016.5
20260505233004 21 192 6.4 16.1 0.00 0.00 0.00 63 1016.4
20260505231506 22 148 11.3 20.9 0.00 0.00 0.00 60 1016.2
20260505230011 22 157 11.3 24.1 0.00 0.00 0.00 57 1016.1
20260505224516 22 126 8.0 20.9 0.00 0.00 0.00 57 1016.2
20260505223021 23 138 8.0 20.9 0.00 0.00 0.00 56 1016.1
20260505221505 23 159 12.9 24.1 0.00 0.00 0.00 54 1016.2
20260505220022 23 184 6.4 22.5 0.00 0.00 0.00 54 1016.4
20260505214525 23 179 9.7 19.3 0.00 0.00 0.00 52 1016.2
20260505213022 23 221 12.9 20.9 0.00 0.00 0.00 52 1016.4
20260505211524 24 253 6.4 24.1 0.00 0.00 0.00 52 1016.4
20260505210008 24 140 12.9 25.7 0.00 0.00 0.00 51 1016.3
20260505204510 25 148 12.9 24.1 0.00 0.00 0.00 49 1016.3
20260505203016 25 155 11.3 35.4 0.00 0.00 0.00 49 1016.2
20260505201522 25 189 12.9 24.1 0.00 0.00 0.00 50 1016.4
20260505200024 25 214 11.3 25.7 0.00 0.00 0.00 49 1016.5
20260505194518 26 94 6.4 20.9 0.00 0.00 0.00 48 1016.6
20260505193015 25 166 11.3 25.7 0.00 0.00 0.00 47 1016.9
20260505191523 26 276 8.0 17.7 0.00 0.00 0.00 45 1017.4
20260505190024 25 194 6.4 17.7 0.00 0.00 0.00 48 1017.6
20260505184528 26 229 6.4 14.5 0.00 0.00 0.00 48 1017.7
20260505183017 25 110 6.4 19.3 0.00 0.00 0.00 49 1017.6
20260505181520 25 238 9.7 24.1 0.00 0.00 0.00 46 1017.4
20260505180024 26 118 3.2 19.3 0.00 0.00 0.00 49 1017.3
20260505174524 25 227 9.7 17.7 0.00 0.00 0.00 51 1017.4
20260505173008 25 135 9.7 19.3 0.00 0.00 0.00 50 1017.4
20260505171517 25 138 6.4 16.1 0.00 0.00 0.00 50 1017.5
20260505170020 24 227 6.4 16.1 0.00 0.00 0.00 52 1017.8
20260505164522 25 215 6.4 16.1 0.00 0.00 0.00 50 1018.0
20260505163029 25 238 3.2 9.7 0.00 0.00 0.00 54 1018.3
20260505161514 24 176 6.4 17.7 0.00 0.00 0.00 54 1018.4
20260505153024 23 152 8.0 17.7 0.00 0.00 0.00 58 1018.5
20260505151526 23 138 11.3 17.7 0.00 0.00 0.00 58 1018.3